Regional Weather Roundup
Issued by NWS Sterling, VA

Home | Current Version | Previous Version | Graphics & Text | Print | Product List | Glossary On
Versions: 1 2 3 4 5 6 7 8 9 10 11 12 13 14 15 16 17 18 19 20 21 22 23 24 25 26 27 28 29 30 31 32 33 34 35 36 37 38 39 40 41 42 43 44 45 46 47 48 49 50
000
ASUS41 KLWX 250510
RWRLWX

REGIONAL WEATHER ROUNDUP
NATIONAL WEATHER SERVICE BALTIMORE MD/WASHINGTON DC
1200 AM EST TUE NOV 25 2014

Note: "FAIR" indicates few or no clouds below 12,000 feet
with no significant weather and/or obstructions to visibility.
 TC=TEMPERATURE CELSIUS

 * =Non NWS site. Station does not report precipitation (e.g. rain,
    snow, etc.), thunder, or fog.

DCZ001-MDZ009-015-VAZ040>042-051-053>054-250600-
WASHINGTON METRO

CITY           SKY/WX    TMP DP  RH WIND       PRES   REMARKS
WASHINGTON NAT CLOUDY    68  59  73 SW15      29.78F
DULLES         CLOUDY    61  56  83 NW10      29.80R
ANDREWS AFB    CLOUDY    65  60  82 SW14      29.78F
FT BELVOIR     CLOUDY    65  59  80 VRB3      29.79F
QUANTICO       CLOUDY    55  52  89 S5        29.80F
LEESBURG*      CLOUDY    63  55  77 SW8       29.80S
MANASSAS*      CLOUDY    64  61  88 S6        29.78S
GAITHERSBURG*  MOCLDY    61  52  72 W7        29.83S

$$

MDZ006>007-011-014-250600-
BALTIMORE METRO

CITY           SKY/WX    TMP DP  RH WIND       PRES   REMARKS
BWI AIRPORT    CLOUDY    66  59  78 SW13G18   29.76F
MD SCIENCE CTR   N/A     65  58  78 MISG      29.78R
MARTIN STATE   CLOUDY    63  61  94 S6        29.79S
ANNAPOLIS      CLOUDY    67  58  72 S6        29.77F
FORT MEADE*    CLOUDY    64  57  77 SW9G16    29.80S

$$

MDZ012-015-019>023-250600-
MARYLAND EASTERN SHORE

CITY           SKY/WX    TMP DP  RH WIND       PRES   REMARKS
OCEAN CITY     LGT RAIN  57  54  89 SW13      29.83F FOG
SALISBURY      CLOUDY    66  61  84 S13       29.83F
CAMBRIDGE*     CLOUDY    63  59  88 CALM      29.77F
EASTON*        CLOUDY    66  62  87 SW10      29.82F

$$

MDZ017>025-250600-
SOUTHERN MARYLAND

CITY           SKY/WX    TMP DP  RH WIND       PRES   REMARKS
PATUXENT RIVER CLOUDY    66  58  75 SW10      29.79F
ST INIGOES     CLOUDY    61  55  81 SW9       29.79F
LEONARDTOWN*   CLOUDY    64  57  77 SW8       29.79F

$$

MDZ003>005-250600-
NORTH CENTRAL MARYLAND

CITY           SKY/WX    TMP DP  RH WIND       PRES   REMARKS
FREDERICK*     NOT AVBL
HAGERSTOWN APT PTCLDY    62  32  32 W7        29.79R
WESTMINSTER*   MOCLDY    61  54  77 SW6       29.79S

$$

MDZ501>502-250600-
WESTERN MARYLAND

CITY           SKY/WX    TMP DP  RH WIND       PRES   REMARKS
OAKLAND*       MOCLDY    43  36  75 W10G17    29.85R
CUMBERLAND*    PTCLDY    59  34  38 W12G18    29.85R

$$

VAZ025>031-250600-
SHENANDOAH VALLEY

CITY           SKY/WX    TMP DP  RH WIND       PRES   REMARKS
WINCHESTER*    PTCLDY    61  36  39 W5        29.80R
FRONT ROYAL*   FAIR      61  48  63 CALM      29.79R
LURAY*         FAIR      63  52  67 W9        29.81R
NEW MARKET*    FAIR      50  47  92 CALM      29.81R
STAUNTON*      CLOUDY    57  49  73 CALM      29.84R
WAYNESBORO*    FAIR      62  46  56 SW9       29.82R

$$

WVZ021-048>050-054>055-250600-
EASTERN WEST VIRGINIA PANHANDLE

CITY           SKY/WX    TMP DP  RH WIND       PRES   REMARKS
MARTINSBURG    PTCLDY    60  32  34 SW7       29.79R
PETERSBURG*    MOCLDY    57  30  36 W3        29.82R

$$

VAZ036>039-050-250600-
CENTRAL FOOTHILLS

CITY           SKY/WX    TMP DP  RH WIND       PRES   REMARKS
CHARLOTTESVILL CLOUDY    60  52  74 S12       29.81R
CULPEPER*      CLOUDY    64  59  82 SW6       29.80S
ORANGE*        CLOUDY    61  55  82 S5        29.83R
GORDONSVILLE*  FAIR      58  54  86 SW6       29.81R
WARRENTON*     FAIR      65  63  91 SW9       29.79S

$$

VAZ055>057-250600-
NORTH AND CENTRAL PIEDMONT

CITY           SKY/WX    TMP DP  RH WIND       PRES   REMARKS
FREDERICKSBRG* CLOUDY    67  61  80 SW9       29.79S
STAFFORD*      CLOUDY    65  58  78 SW6       29.84R

$$

NCZ024-NYZ072-PAZ021-071-VAZ022-071-250600-
OTHER REGIONAL OBSERVATIONS

CITY           SKY/WX    TMP DP  RH WIND       PRES   REMARKS
NEW YORK CITY  PTCLDY    67  56  67 VRB7      29.76S
PHILADELPHIA   CLOUDY    68  57  68 SW17G26   29.77R
PITTSBURGH     PTCLDY    42  30  62 SW12      29.86R
ROANOKE        CLOUDY    59  50  72 SW3       29.89R
RICHMOND       CLOUDY    66  60  81 S9        29.84R
RALEIGH        LGT RAIN  65  60  84 SW14      29.92R

$$

ANZ530>537-250600-
MARINE OBSERVATIONS

STATION/POSITION TIME  TEMP    WIND        PRES
                       AIR SEA DIR/SP/G
                 (UTC) (F)     (DEG/KT/KT) (MB)
THOMAS PT LIGHT  0500   62 49  190/ 14/ 14 1009.3F
BALT KEY BRIDGE  0500   67     200/ 13/ 18 1007.6S
COVE POINT       0500   67     260/ 10/ 13 1008.1S
LEWISETTA        0500   66 49  210/  9/ 12 1009.6R
SOLOMONS ISLAND  0500      50                N/A
PINEY POINT      0500          250/  6/  7   N/A

$$




USA.gov is the U.S. government's official web portal to all federal, state and local government web resources and services.